Wetterdaten: Donnerstag, 24.12.2015
Datum Zeit Temp. A. Feuchte A. Luftdruck Regen Wind Richtung Richtung Sonnenschein ET UV Solar Taupunkt Windchill Windben Empfang
24.12.2015 00:00 5,3 C 91 % 1031,0 hPa 0,0 l/m 2,8 km/h (1 Bft) S 185 0 min 0,000 mm 0,0 UV-I 0 W/m 4,0 C 5,3 C 6,4 km/h (2 Bft) 98,33 %
24.12.2015 00:05 5,1 C 92 % 1031,0 hPa 0,0 l/m 3,9 km/h (1 Bft) S 184 0 min 0,000 mm 0,0 UV-I 0 W/m 3,9 C 5,1 C 6,4 km/h (2 Bft) 98,26 %
24.12.2015 00:10 5,1 C 92 % 1030,9 hPa 0,0 l/m 4,3 km/h (1 Bft) S 184 0 min 0,000 mm 0,0 UV-I 0 W/m 3,9 C 5,1 C 6,4 km/h (2 Bft) 96,61 %
24.12.2015 00:15 5,1 C 92 % 1030,9 hPa 0,0 l/m 5,7 km/h (1 Bft) S-SW 192 0 min 0,000 mm 0,0 UV-I 0 W/m 3,9 C 5,1 C 6,4 km/h (2 Bft) 96,58 %
24.12.2015 00:20 5,2 C 91 % 1030,9 hPa 0,0 l/m 3,8 km/h (1 Bft) S 185 0 min 0,000 mm 0,0 UV-I 0 W/m 3,9 C 5,2 C 4,8 km/h (1 Bft) 97,46 %
24.12.2015 00:25 5,4 C 90 % 1030,8 hPa 0,0 l/m 3,8 km/h (1 Bft) S-SO 166 0 min 0,000 mm 0,0 UV-I 0 W/m 3,9 C 5,4 C 8,0 km/h (2 Bft) 98,29 %
24.12.2015 00:30 5,7 C 88 % 1030,8 hPa 0,0 l/m 4,5 km/h (1 Bft) S 181 0 min 0,000 mm 0,0 UV-I 0 W/m 3,9 C 5,7 C 8,0 km/h (2 Bft) 96,43 %
24.12.2015 00:35 5,8 C 88 % 1030,8 hPa 0,0 l/m 2,7 km/h (1 Bft) S 179 0 min 0,000 mm 0,0 UV-I 0 W/m 4,0 C 5,8 C 4,8 km/h (1 Bft) 96,61 %
24.12.2015 00:40 5,7 C 87 % 1030,8 hPa 0,0 l/m 1,2 km/h (1 Bft) S 179 0 min 0,000 mm 0,0 UV-I 0 W/m 3,7 C 5,7 C 3,2 km/h (1 Bft) 94,87 %
24.12.2015 00:45 5,9 C 85 % 1030,8 hPa 0,0 l/m 0,9 km/h (0 Bft) S 179 0 min 0,000 mm 0,0 UV-I 0 W/m 3,6 C 5,9 C 3,2 km/h (1 Bft) 96,61 %
24.12.2015 00:50 5,9 C 87 % 1030,7 hPa 0,0 l/m 1,3 km/h (1 Bft) S 182 0 min 0,000 mm 0,0 UV-I 0 W/m 3,9 C 5,9 C 3,2 km/h (1 Bft) 99,15 %
24.12.2015 00:55 5,4 C 90 % 1030,7 hPa 0,0 l/m 0,6 km/h (0 Bft) S 182 0 min 0,000 mm 0,0 UV-I 0 W/m 3,9 C 5,4 C 1,6 km/h (1 Bft) 100,00 %
24.12.2015 01:00 5,3 C 90 % 1030,7 hPa 0,0 l/m 0,5 km/h (0 Bft) S 182 0 min 0,000 mm 0,0 UV-I 0 W/m 3,8 C 5,3 C 3,2 km/h (1 Bft) 99,15 %
24.12.2015 01:05 5,3 C 91 % 1030,5 hPa 0,0 l/m 1,2 km/h (1 Bft) S 182 0 min 0,000 mm 0,0 UV-I 0 W/m 4,0 C 5,3 C 3,2 km/h (1 Bft) 99,06 %
24.12.2015 01:10 5,4 C 90 % 1030,4 hPa 0,0 l/m 0,3 km/h (0 Bft) S 182 0 min 0,000 mm 0,0 UV-I 0 W/m 3,9 C 5,4 C 1,6 km/h (1 Bft) 98,29 %
24.12.2015 01:15 5,3 C 91 % 1030,4 hPa 0,0 l/m 0,0 km/h (0 Bft) S 182 0 min 0,000 mm 0,0 UV-I 0 W/m 4,0 C 5,3 C 1,6 km/h (1 Bft) 100,00 %
24.12.2015 01:20 5,3 C 91 % 1030,4 hPa 0,0 l/m 1,3 km/h (1 Bft) S 182 0 min 0,000 mm 0,0 UV-I 0 W/m 4,0 C 5,3 C 3,2 km/h (1 Bft) 100,00 %
24.12.2015 01:25 5,3 C 89 % 1030,4 hPa 0,0 l/m 2,8 km/h (1 Bft) S 182 0 min 0,000 mm 0,0 UV-I 0 W/m 3,6 C 5,3 C 4,8 km/h (1 Bft) 99,15 %
24.12.2015 01:30 5,2 C 90 % 1030,3 hPa 0,0 l/m 3,2 km/h (1 Bft) S 181 0 min 0,000 mm 0,0 UV-I 0 W/m 3,7 C 5,2 C 4,8 km/h (1 Bft) 99,15 %
24.12.2015 01:35 5,2 C 89 % 1030,3 hPa 0,0 l/m 3,7 km/h (1 Bft) S 181 0 min 0,000 mm 0,0 UV-I 0 W/m 3,5 C 5,2 C 4,8 km/h (1 Bft) 99,15 %
24.12.2015 01:40 5,2 C 90 % 1030,1 hPa 0,0 l/m 3,3 km/h (1 Bft) S 178 0 min 0,000 mm 0,0 UV-I 0 W/m 3,7 C 5,2 C 4,8 km/h (1 Bft) 97,46 %
24.12.2015 01:45 5,2 C 89 % 1030,2 hPa 0,0 l/m 1,9 km/h (1 Bft) S 178 0 min 0,000 mm 0,0 UV-I 0 W/m 3,5 C 5,2 C 3,2 km/h (1 Bft) 99,15 %
24.12.2015 01:50 5,3 C 89 % 1030,2 hPa 0,0 l/m 0,6 km/h (0 Bft) S 178 0 min 0,000 mm 0,0 UV-I 0 W/m 3,6 C 5,3 C 1,6 km/h (1 Bft) 100,00 %
24.12.2015 01:55 5,2 C 90 % 1030,3 hPa 0,0 l/m 1,0 km/h (0 Bft) W 276 0 min 0,000 mm 0,0 UV-I 0 W/m 3,7 C 5,2 C 3,2 km/h (1 Bft) 97,46 %
24.12.2015 02:00 4,8 C 92 % 1030,3 hPa 0,0 l/m 0,1 km/h (0 Bft) W 277 0 min 0,000 mm 0,0 UV-I 0 W/m 3,6 C 4,8 C 1,6 km/h (1 Bft) 99,06 %
24.12.2015 02:05 4,8 C 91 % 1030,3 hPa 0,0 l/m 0,9 km/h (0 Bft) N-NW 345 0 min 0,000 mm 0,0 UV-I 0 W/m 3,5 C 4,8 C 3,2 km/h (1 Bft) 99,15 %
24.12.2015 02:10 4,8 C 91 % 1030,3 hPa 0,0 l/m 1,2 km/h (1 Bft) N-NO 14 0 min 0,000 mm 0,0 UV-I 0 W/m 3,5 C 4,8 C 4,8 km/h (1 Bft) 100,00 %
24.12.2015 02:15 4,8 C 92 % 1030,4 hPa 0,0 l/m 1,1 km/h (1 Bft) N-NO 14 0 min 0,000 mm 0,0 UV-I 0 W/m 3,6 C 4,8 C 3,2 km/h (1 Bft) 97,44 %
24.12.2015 02:20 4,8 C 93 % 1030,3 hPa 0,0 l/m 1,0 km/h (0 Bft) N-NO 14 0 min 0,000 mm 0,0 UV-I 0 W/m 3,8 C 4,8 C 3,2 km/h (1 Bft) 96,61 %
24.12.2015 02:25 4,7 C 93 % 1030,3 hPa 0,0 l/m 0,7 km/h (0 Bft) N-NO 15 0 min 0,000 mm 0,0 UV-I 0 W/m 3,7 C 4,7 C 3,2 km/h (1 Bft) 97,46 %
24.12.2015 02:30 4,6 C 93 % 1030,2 hPa 0,0 l/m 0,3 km/h (0 Bft) N-NO 15 0 min 0,000 mm 0,0 UV-I 0 W/m 3,6 C 4,6 C 3,2 km/h (1 Bft) 94,87 %
24.12.2015 02:35 4,6 C 94 % 1030,2 hPa 0,0 l/m 1,9 km/h (1 Bft) N-NO 15 0 min 0,000 mm 0,0 UV-I 0 W/m 3,7 C 4,6 C 3,2 km/h (1 Bft) 95,76 %
24.12.2015 02:40 4,6 C 94 % 1030,1 hPa 0,0 l/m 2,0 km/h (1 Bft) N-NO 19 0 min 0,000 mm 0,0 UV-I 0 W/m 3,7 C 4,6 C 3,2 km/h (1 Bft) 97,50 %
24.12.2015 02:45 4,7 C 94 % 1030,0 hPa 0,0 l/m 2,3 km/h (1 Bft) N-NO 19 0 min 0,000 mm 0,0 UV-I 0 W/m 3,8 C 4,7 C 3,2 km/h (1 Bft) 97,46 %
24.12.2015 02:50 4,6 C 95 % 1030,1 hPa 0,0 l/m 0,5 km/h (0 Bft) N-NO 19 0 min 0,000 mm 0,0 UV-I 0 W/m 3,9 C 4,6 C 1,6 km/h (1 Bft) 99,15 %
24.12.2015 02:55 4,5 C 95 % 1030,0 hPa 0,0 l/m 0,1 km/h (0 Bft) N-NO 19 0 min 0,000 mm 0,0 UV-I 0 W/m 3,8 C 4,5 C 1,6 km/h (1 Bft) 98,15 %
24.12.2015 03:00 4,4 C 95 % 1030,1 hPa 0,0 l/m 2,9 km/h (1 Bft) NO 51 0 min 0,000 mm 0,0 UV-I 0 W/m 3,7 C 4,4 C 4,8 km/h (1 Bft) 100,00 %
24.12.2015 03:05 4,5 C 95 % 1030,1 hPa 0,0 l/m 3,9 km/h (1 Bft) NO 54 0 min 0,000 mm 0,0 UV-I 0 W/m 3,8 C 4,5 C 4,8 km/h (1 Bft) 99,15 %
24.12.2015 03:10 4,8 C 95 % 1030,0 hPa 0,0 l/m 3,6 km/h (1 Bft) NO 55 0 min 0,000 mm 0,0 UV-I 0 W/m 4,1 C 4,8 C 4,8 km/h (1 Bft) 100,00 %
24.12.2015 03:15 4,6 C 94 % 1030,0 hPa 0,0 l/m 3,4 km/h (1 Bft) O 95 0 min 0,000 mm 0,0 UV-I 0 W/m 3,7 C 4,6 C 4,8 km/h (1 Bft) 99,08 %
24.12.2015 03:20 4,2 C 94 % 1030,0 hPa 0,0 l/m 2,1 km/h (1 Bft) O 95 0 min 0,000 mm 0,0 UV-I 0 W/m 3,3 C 4,2 C 3,2 km/h (1 Bft) 99,15 %
24.12.2015 03:25 3,9 C 95 % 1030,0 hPa 0,0 l/m 1,5 km/h (1 Bft) O 95 0 min 0,000 mm 0,0 UV-I 0 W/m 3,2 C 3,9 C 3,2 km/h (1 Bft) 99,15 %
24.12.2015 03:30 3,9 C 95 % 1030,0 hPa 0,0 l/m 1,3 km/h (1 Bft) O 95 0 min 0,000 mm 0,0 UV-I 0 W/m 3,2 C 3,9 C 3,2 km/h (1 Bft) 100,00 %
24.12.2015 03:35 3,7 C 94 % 1030,0 hPa 0,0 l/m 1,4 km/h (1 Bft) O 95 0 min 0,000 mm 0,0 UV-I 0 W/m 2,8 C 3,7 C 3,2 km/h (1 Bft) 98,29 %
24.12.2015 03:40 3,5 C 95 % 1029,9 hPa 0,0 l/m 0,8 km/h (0 Bft) O 95 0 min 0,000 mm 0,0 UV-I 0 W/m 2,8 C 3,5 C 3,2 km/h (1 Bft) 99,15 %
24.12.2015 03:45 3,4 C 95 % 1029,9 hPa 0,0 l/m 1,5 km/h (1 Bft) O 95 0 min 0,000 mm 0,0 UV-I 0 W/m 2,7 C 3,4 C 3,2 km/h (1 Bft) 98,33 %
24.12.2015 03:50 3,2 C 95 % 1029,9 hPa 0,0 l/m 2,0 km/h (1 Bft) O 95 0 min 0,000 mm 0,0 UV-I 0 W/m 2,5 C 3,2 C 3,2 km/h (1 Bft) 97,46 %
24.12.2015 03:55 3,1 C 96 % 1029,9 hPa 0,0 l/m 0,9 km/h (0 Bft) O 95 0 min 0,000 mm 0,0 UV-I 0 W/m 2,5 C 3,1 C 1,6 km/h (1 Bft) 98,31 %
24.12.2015 04:00 3,2 C 96 % 1029,9 hPa 0,0 l/m 1,2 km/h (1 Bft) O 89 0 min 0,000 mm 0,0 UV-I 0 W/m 2,6 C 3,2 C 3,2 km/h (1 Bft) 99,08 %
24.12.2015 04:05 2,8 C 95 % 1029,8 hPa 0,0 l/m 1,6 km/h (1 Bft) SO 135 0 min 0,000 mm 0,0 UV-I 0 W/m 2,1 C 2,8 C 4,8 km/h (1 Bft) 100,00 %
24.12.2015 04:10 2,8 C 96 % 1029,8 hPa 0,0 l/m 1,9 km/h (1 Bft) SO 132 0 min 0,000 mm 0,0 UV-I 0 W/m 2,2 C 2,8 C 4,8 km/h (1 Bft) 100,00 %
24.12.2015 04:15 2,9 C 96 % 1029,7 hPa 0,0 l/m 3,4 km/h (1 Bft) SO 129 0 min 0,000 mm 0,0 UV-I 0 W/m 2,3 C 2,9 C 9,7 km/h (2 Bft) 100,00 %
24.12.2015 04:20 3,1 C 96 % 1029,7 hPa 0,0 l/m 3,2 km/h (1 Bft) S-SO 157 0 min 0,000 mm 0,0 UV-I 0 W/m 2,5 C 3,1 C 6,4 km/h (2 Bft) 98,31 %
24.12.2015 04:25 3,4 C 96 % 1029,7 hPa 0,0 l/m 2,0 km/h (1 Bft) SO 144 0 min 0,000 mm 0,0 UV-I 0 W/m 2,8 C 3,4 C 4,8 km/h (1 Bft) 99,17 %
24.12.2015 04:30 3,3 C 95 % 1029,7 hPa 0,0 l/m 0,7 km/h (0 Bft) SO 144 0 min 0,000 mm 0,0 UV-I 0 W/m 2,6 C 3,3 C 3,2 km/h (1 Bft) 95,73 %
24.12.2015 04:35 2,7 C 94 % 1029,6 hPa 0,0 l/m 1,9 km/h (1 Bft) S-SO 164 0 min 0,000 mm 0,0 UV-I 0 W/m 1,8 C 2,7 C 8,0 km/h (2 Bft) 97,50 %
24.12.2015 04:40 2,4 C 96 % 1029,5 hPa 0,0 l/m 1,6 km/h (1 Bft) S-SO 163 0 min 0,000 mm 0,0 UV-I 0 W/m 1,8 C 2,4 C 6,4 km/h (2 Bft) 95,28 %
24.12.2015 04:45 2,8 C 97 % 1029,5 hPa 0,0 l/m 2,1 km/h (1 Bft) S-SO 152 0 min 0,000 mm 0,0 UV-I 0 W/m 2,4 C 2,8 C 6,4 km/h (2 Bft) 97,48 %
24.12.2015 04:50 3,2 C 97 % 1029,4 hPa 0,0 l/m 2,1 km/h (1 Bft) SO 134 0 min 0,000 mm 0,0 UV-I 0 W/m 2,8 C 3,2 C 6,4 km/h (2 Bft) 97,52 %
24.12.2015 04:55 3,3 C 96 % 1029,3 hPa 0,0 l/m 2,7 km/h (1 Bft) S-SO 150 0 min 0,000 mm 0,0 UV-I 0 W/m 2,7 C 3,3 C 6,4 km/h (2 Bft) 95,73 %
24.12.2015 05:00 3,2 C 94 % 1029,2 hPa 0,0 l/m 2,2 km/h (1 Bft) S-SO 151 0 min 0,000 mm 0,0 UV-I 0 W/m 2,3 C 3,2 C 4,8 km/h (1 Bft) 97,52 %
24.12.2015 05:05 2,9 C 95 % 1029,3 hPa 0,0 l/m 1,7 km/h (1 Bft) S-SO 153 0 min 0,000 mm 0,0 UV-I 0 W/m 2,2 C 2,9 C 3,2 km/h (1 Bft) 100,00 %
24.12.2015 05:10 2,6 C 95 % 1029,2 hPa 0,0 l/m 1,1 km/h (1 Bft) S 174 0 min 0,000 mm 0,0 UV-I 0 W/m 1,9 C 2,6 C 3,2 km/h (1 Bft) 98,29 %
24.12.2015 05:15 2,6 C 96 % 1029,2 hPa 0,0 l/m 2,4 km/h (1 Bft) S 175 0 min 0,000 mm 0,0 UV-I 0 W/m 2,0 C 2,6 C 3,2 km/h (1 Bft) 99,15 %
24.12.2015 05:20 2,7 C 96 % 1029,2 hPa 0,0 l/m 2,0 km/h (1 Bft) S 175 0 min 0,000 mm 0,0 UV-I 0 W/m 2,1 C 2,7 C 3,2 km/h (1 Bft) 100,00 %
24.12.2015 05:25 2,7 C 96 % 1029,1 hPa 0,0 l/m 1,2 km/h (1 Bft) S 175 0 min 0,000 mm 0,0 UV-I 0 W/m 2,1 C 2,7 C 3,2 km/h (1 Bft) 100,00 %
24.12.2015 05:30 2,3 C 95 % 1029,1 hPa 0,0 l/m 0,0 km/h (0 Bft) S 175 0 min 0,000 mm 0,0 UV-I 0 W/m 1,6 C 2,3 C 0,0 km/h (0 Bft) 100,00 %
24.12.2015 05:35 2,4 C 96 % 1029,1 hPa 0,0 l/m 0,0 km/h (0 Bft) S 175 0 min 0,000 mm 0,0 UV-I 0 W/m 1,8 C 2,4 C 1,6 km/h (1 Bft) 97,22 %
24.12.2015 05:40 2,6 C 97 % 1029,0 hPa 0,0 l/m 0,0 km/h (0 Bft) S 175 0 min 0,000 mm 0,0 UV-I 0 W/m 2,2 C 2,6 C 0,0 km/h (0 Bft) 99,15 %
24.12.2015 05:45 2,5 C 96 % 1029,1 hPa 0,0 l/m 0,6 km/h (0 Bft) S 175 0 min 0,000 mm 0,0 UV-I 0 W/m 1,9 C 2,5 C 1,6 km/h (1 Bft) 100,00 %
24.12.2015 05:50 2,2 C 95 % 1029,0 hPa 0,0 l/m 3,1 km/h (1 Bft) NO 44 0 min 0,000 mm 0,0 UV-I 0 W/m 1,5 C 2,2 C 4,8 km/h (1 Bft) 100,00 %
24.12.2015 05:55 2,1 C 96 % 1029,0 hPa 0,0 l/m 2,9 km/h (1 Bft) NO 40 0 min 0,000 mm 0,0 UV-I 0 W/m 1,5 C 2,1 C 4,8 km/h (1 Bft) 99,15 %
24.12.2015 06:00 1,7 C 96 % 1029,0 hPa 0,0 l/m 2,2 km/h (1 Bft) N-NO 24 0 min 0,000 mm 0,0 UV-I 0 W/m 1,1 C 1,7 C 6,4 km/h (2 Bft) 99,15 %
24.12.2015 06:05 2,0 C 97 % 1028,9 hPa 0,0 l/m 3,4 km/h (1 Bft) N-NO 27 0 min 0,000 mm 0,0 UV-I 0 W/m 1,6 C 2,0 C 6,4 km/h (2 Bft) 100,00 %
24.12.2015 06:10 1,9 C 96 % 1028,8 hPa 0,0 l/m 0,5 km/h (0 Bft) N-NO 27 0 min 0,000 mm 0,0 UV-I 0 W/m 1,3 C 1,9 C 3,2 km/h (1 Bft) 97,52 %
24.12.2015 06:15 1,9 C 97 % 1028,8 hPa 0,0 l/m 3,1 km/h (1 Bft) NO 46 0 min 0,000 mm 0,0 UV-I 0 W/m 1,5 C 1,9 C 4,8 km/h (1 Bft) 100,00 %
24.12.2015 06:20 2,1 C 97 % 1028,6 hPa 0,0 l/m 4,9 km/h (1 Bft) N-NO 32 0 min 0,000 mm 0,0 UV-I 0 W/m 1,7 C 2,1 C 8,0 km/h (2 Bft) 100,00 %
24.12.2015 06:25 2,2 C 97 % 1028,5 hPa 0,0 l/m 5,8 km/h (2 Bft) NO 48 0 min 0,000 mm 0,0 UV-I 0 W/m 1,8 C 2,2 C 8,0 km/h (2 Bft) 99,06 %
24.12.2015 06:30 2,2 C 97 % 1028,5 hPa 0,0 l/m 3,8 km/h (1 Bft) NO 52 0 min 0,000 mm 0,0 UV-I 0 W/m 1,8 C 2,2 C 6,4 km/h (2 Bft) 99,15 %
24.12.2015 06:35 2,2 C 97 % 1028,5 hPa 0,0 l/m 2,3 km/h (1 Bft) NO 52 0 min 0,000 mm 0,0 UV-I 0 W/m 1,8 C 2,2 C 4,8 km/h (1 Bft) 100,00 %
24.12.2015 06:40 2,1 C 97 % 1028,5 hPa 0,0 l/m 0,1 km/h (0 Bft) NO 52 0 min 0,000 mm 0,0 UV-I 0 W/m 1,7 C 2,1 C 1,6 km/h (1 Bft) 95,76 %
24.12.2015 06:45 1,4 C 96 % 1028,4 hPa 0,0 l/m 0,6 km/h (0 Bft) NO 52 0 min 0,000 mm 0,0 UV-I 0 W/m 0,8 C 1,4 C 3,2 km/h (1 Bft) 95,73 %
24.12.2015 06:50 1,5 C 97 % 1028,3 hPa 0,0 l/m 2,7 km/h (1 Bft) NO 52 0 min 0,000 mm 0,0 UV-I 0 W/m 1,1 C 1,5 C 4,8 km/h (1 Bft) 97,56 %
24.12.2015 06:55 1,2 C 96 % 1028,3 hPa 0,0 l/m 1,3 km/h (1 Bft) NO 52 0 min 0,000 mm 0,0 UV-I 0 W/m 0,6 C 1,2 C 3,2 km/h (1 Bft) 97,50 %
24.12.2015 07:00 1,7 C 97 % 1028,2 hPa 0,0 l/m 2,2 km/h (1 Bft) NO 52 0 min 0,000 mm 0,0 UV-I 0 W/m 1,3 C 1,7 C 4,8 km/h (1 Bft) 98,15 %
24.12.2015 07:05 1,4 C 97 % 1028,2 hPa 0,0 l/m 2,3 km/h (1 Bft) NO 52 0 min 0,000 mm 0,0 UV-I 0 W/m 1,0 C 1,4 C 4,8 km/h (1 Bft) 97,46 %
24.12.2015 07:10 1,3 C 97 % 1028,2 hPa 0,0 l/m 1,6 km/h (1 Bft) NO 52 0 min 0,000 mm 0,0 UV-I 0 W/m 0,9 C 1,3 C 3,2 km/h (1 Bft) 97,50 %
24.12.2015 07:15 1,1 C 97 % 1028,2 hPa 0,0 l/m 0,3 km/h (0 Bft) NO 52 0 min 0,000 mm 0,0 UV-I 0 W/m 0,7 C 1,1 C 3,2 km/h (1 Bft) 97,46 %
24.12.2015 07:20 0,7 C 96 % 1028,2 hPa 0,0 l/m 1,6 km/h (1 Bft) S 186 0 min 0,000 mm 0,0 UV-I 0 W/m 0,1 C 0,7 C 4,8 km/h (1 Bft) 98,29 %
24.12.2015 07:25 0,4 C 97 % 1028,2 hPa 0,0 l/m 4,2 km/h (1 Bft) S 180 0 min 0,000 mm 0,0 UV-I 0 W/m -0,0 C 0,4 C 4,8 km/h (1 Bft) 98,31 %
24.12.2015 07:30 0,6 C 97 % 1028,2 hPa 0,0 l/m 3,2 km/h (1 Bft) S 175 0 min 0,000 mm 0,0 UV-I 0 W/m 0,2 C 0,6 C 4,8 km/h (1 Bft) 100,00 %
24.12.2015 07:35 0,7 C 97 % 1028,1 hPa 0,0 l/m 2,2 km/h (1 Bft) S 175 0 min 0,000 mm 0,0 UV-I 0 W/m 0,3 C 0,7 C 4,8 km/h (1 Bft) 99,15 %
24.12.2015 07:40 0,8 C 97 % 1028,1 hPa 0,0 l/m 1,8 km/h (1 Bft) S 175 0 min 0,000 mm 0,0 UV-I 0 W/m 0,4 C 0,8 C 3,2 km/h (1 Bft) 99,08 %
24.12.2015 07:45 0,8 C 97 % 1028,1 hPa 0,0 l/m 2,8 km/h (1 Bft) S 189 0 min 0,000 mm 0,0 UV-I 0 W/m 0,4 C 0,8 C 4,8 km/h (1 Bft) 99,17 %
24.12.2015 07:50 0,5 C 97 % 1028,1 hPa 0,0 l/m 2,3 km/h (1 Bft) S 189 0 min 0,000 mm 0,0 UV-I 3 W/m 0,1 C 0,5 C 4,8 km/h (1 Bft) 98,29 %
24.12.2015 07:55 0,4 C 97 % 1028,1 hPa 0,0 l/m 1,9 km/h (1 Bft) S-SW 193 0 min 0,000 mm 0,0 UV-I 5 W/m -0,0 C 0,4 C 3,2 km/h (1 Bft) 99,17 %
24.12.2015 08:00 0,5 C 97 % 1028,1 hPa 0,0 l/m 2,7 km/h (1 Bft) S 191 0 min 0,000 mm 0,0 UV-I 7 W/m 0,1 C 0,5 C 4,8 km/h (1 Bft) 98,29 %
24.12.2015 08:05 0,5 C 97 % 1028,0 hPa 0,0 l/m 1,8 km/h (1 Bft) S-SO 166 5 min 0,000 mm 0,0 UV-I 10 W/m 0,1 C 0,5 C 6,4 km/h (2 Bft) 97,46 %
24.12.2015 08:10 0,6 C 97 % 1028,1 hPa 0,0 l/m 0,9 km/h (0 Bft) S-SW 196 0 min 0,000 mm 0,0 UV-I 12 W/m 0,2 C 0,6 C 4,8 km/h (1 Bft) 100,00 %
24.12.2015 08:15 0,6 C 97 % 1028,1 hPa 0,0 l/m 1,9 km/h (1 Bft) S-SW 197 0 min 0,000 mm 0,0 UV-I 14 W/m 0,2 C 0,6 C 3,2 km/h (1 Bft) 99,15 %
24.12.2015 08:20 0,1 C 97 % 1028,1 hPa 0,0 l/m 2,3 km/h (1 Bft) S-SW 197 0 min 0,000 mm 0,0 UV-I 17 W/m -0,3 C 0,1 C 3,2 km/h (1 Bft) 99,17 %
24.12.2015 08:25 -0,1 C 97 % 1028,1 hPa 0,0 l/m 1,0 km/h (0 Bft) S-SW 197 0 min 0,000 mm 0,0 UV-I 18 W/m -0,5 C -0,1 C 3,2 km/h (1 Bft) 100,00 %
24.12.2015 08:30 -0,1 C 97 % 1028,1 hPa 0,0 l/m 0,0 km/h (0 Bft) S-SW 197 0 min 0,000 mm 0,0 UV-I 21 W/m -0,5 C -0,1 C 0,0 km/h (0 Bft) 100,00 %
24.12.2015 08:35 0,3 C 97 % 1028,0 hPa 0,0 l/m 0,0 km/h (0 Bft) S-SW 197 0 min 0,000 mm 0,0 UV-I 26 W/m -0,1 C 0,3 C 0,0 km/h (0 Bft) 99,15 %
24.12.2015 08:40 0,8 C 98 % 1028,1 hPa 0,0 l/m 0,0 km/h (0 Bft) S-SW 197 0 min 0,000 mm 0,0 UV-I 39 W/m 0,5 C 0,8 C 0,0 km/h (0 Bft) 99,15 %
24.12.2015 08:45 1,0 C 98 % 1028,2 hPa 0,0 l/m 0,2 km/h (0 Bft) S-SW 197 0 min 0,000 mm 0,0 UV-I 49 W/m 0,7 C 1,0 C 1,6 km/h (1 Bft) 99,15 %
24.12.2015 08:50 0,8 C 98 % 1028,2 hPa 0,0 l/m 0,0 km/h (0 Bft) S-SW 197 0 min 0,000 mm 0,0 UV-I 57 W/m 0,5 C 0,8 C 0,0 km/h (0 Bft) 96,61 %
24.12.2015 08:55 0,7 C 98 % 1028,3 hPa 0,0 l/m 0,0 km/h (0 Bft) S-SW 197 0 min 0,000 mm 0,0 UV-I 66 W/m 0,4 C 0,7 C 0,0 km/h (0 Bft) 95,73 %
24.12.2015 09:00 1,1 C 98 % 1028,3 hPa 0,0 l/m 0,0 km/h (0 Bft) S-SW 197 0 min 0,000 mm 0,0 UV-I 74 W/m 0,8 C 1,1 C 0,0 km/h (0 Bft) 97,46 %
24.12.2015 09:05 1,2 C 98 % 1028,3 hPa 0,0 l/m 0,3 km/h (0 Bft) S-SW 197 5 min 0,000 mm 0,0 UV-I 82 W/m 0,9 C 1,2 C 3,2 km/h (1 Bft) 97,46 %
24.12.2015 09:10 1,3 C 98 % 1028,3 hPa 0,0 l/m 0,1 km/h (0 Bft) S-SW 197 5 min 0,000 mm 0,0 UV-I 87 W/m 1,0 C 1,3 C 1,6 km/h (1 Bft) 96,58 %
24.12.2015 09:15 1,6 C 98 % 1028,4 hPa 0,0 l/m 0,5 km/h (0 Bft) S-SW 197 0 min 0,000 mm 0,0 UV-I 82 W/m 1,3 C 1,6 C 3,2 km/h (1 Bft) 96,61 %
24.12.2015 09:20 1,6 C 98 % 1028,4 hPa 0,0 l/m 2,7 km/h (1 Bft) S-SW 197 0 min 0,000 mm 0,0 UV-I 74 W/m 1,3 C 1,6 C 4,8 km/h (1 Bft) 96,58 %
24.12.2015 09:25 1,7 C 97 % 1028,4 hPa 0,0 l/m 2,7 km/h (1 Bft) S-SW 196 0 min 0,000 mm 0,0 UV-I 87 W/m 1,3 C 1,7 C 4,8 km/h (1 Bft) 100,00 %
24.12.2015 09:30 1,9 C 98 % 1028,4 hPa 0,0 l/m 2,3 km/h (1 Bft) S-SW 195 5 min 0,000 mm 0,0 UV-I 116 W/m 1,6 C 1,9 C 4,8 km/h (1 Bft) 99,17 %
24.12.2015 09:35 2,1 C 97 % 1028,4 hPa 0,0 l/m 1,3 km/h (1 Bft) S-SW 195 5 min 0,000 mm 0,0 UV-I 132 W/m 1,7 C 2,1 C 3,2 km/h (1 Bft) 99,15 %
24.12.2015 09:40 2,3 C 97 % 1028,4 hPa 0,0 l/m 1,2 km/h (1 Bft) S-SO 161 5 min 0,000 mm 0,0 UV-I 142 W/m 1,9 C 2,3 C 4,8 km/h (1 Bft) 100,00 %
24.12.2015 09:45 3,0 C 98 % 1028,3 hPa 0,0 l/m 1,9 km/h (1 Bft) S-SO 150 5 min 0,000 mm 0,0 UV-I 154 W/m 2,7 C 3,0 C 4,8 km/h (1 Bft) 99,08 %
24.12.2015 09:50 3,6 C 97 % 1028,3 hPa 0,0 l/m 2,6 km/h (1 Bft) S-SO 163 5 min 0,000 mm 0,0 UV-I 163 W/m 3,2 C 3,6 C 6,4 km/h (2 Bft) 96,58 %
24.12.2015 09:55 3,8 C 95 % 1028,3 hPa 0,0 l/m 3,5 km/h (1 Bft) S-SO 157 5 min 0,000 mm 0,0 UV-I 173 W/m 3,1 C 3,8 C 8,0 km/h (2 Bft) 99,17 %
24.12.2015 10:00 3,9 C 94 % 1028,3 hPa 0,0 l/m 2,4 km/h (1 Bft) S-SO 159 5 min 0,051 mm 0,0 UV-I 181 W/m 3,0 C 3,9 C 6,4 km/h (2 Bft) 99,15 %
24.12.2015 10:05 4,1 C 93 % 1028,4 hPa 0,0 l/m 1,9 km/h (1 Bft) S-SO 154 5 min 0,000 mm 0,0 UV-I 189 W/m 3,1 C 4,1 C 4,8 km/h (1 Bft) 100,00 %
24.12.2015 10:10 4,1 C 93 % 1028,4 hPa 0,0 l/m 2,4 km/h (1 Bft) S-SO 161 5 min 0,000 mm 0,0 UV-I 191 W/m 3,1 C 4,1 C 6,4 km/h (2 Bft) 100,00 %
24.12.2015 10:15 4,1 C 94 % 1028,4 hPa 0,0 l/m 3,1 km/h (1 Bft) S-SO 163 5 min 0,000 mm 0,0 UV-I 190 W/m 3,2 C 4,1 C 6,4 km/h (2 Bft) 99,15 %
24.12.2015 10:20 4,3 C 92 % 1028,3 hPa 0,0 l/m 3,1 km/h (1 Bft) S-SO 167 5 min 0,000 mm 0,0 UV-I 210 W/m 3,1 C 4,3 C 8,0 km/h (2 Bft) 100,00 %
24.12.2015 10:25 4,5 C 92 % 1028,3 hPa 0,0 l/m 3,9 km/h (1 Bft) S-SO 167 5 min 0,000 mm 0,0 UV-I 217 W/m 3,3 C 4,5 C 8,0 km/h (2 Bft) 99,08 %
24.12.2015 10:30 4,6 C 92 % 1028,2 hPa 0,0 l/m 3,3 km/h (1 Bft) SO 144 5 min 0,000 mm 0,3 UV-I 223 W/m 3,4 C 4,6 C 8,0 km/h (2 Bft) 98,29 %
24.12.2015 10:35 4,9 C 91 % 1028,1 hPa 0,0 l/m 3,5 km/h (1 Bft) S-SO 150 5 min 0,000 mm 0,5 UV-I 229 W/m 3,6 C 4,9 C 9,7 km/h (2 Bft) 100,00 %
24.12.2015 10:40 5,0 C 89 % 1028,1 hPa 0,0 l/m 4,9 km/h (1 Bft) S 169 5 min 0,000 mm 0,5 UV-I 236 W/m 3,3 C 5,0 C 12,9 km/h (3 Bft) 98,33 %
24.12.2015 10:45 5,1 C 90 % 1028,1 hPa 0,0 l/m 3,5 km/h (1 Bft) S-SO 164 5 min 0,000 mm 0,5 UV-I 242 W/m 3,6 C 5,1 C 8,0 km/h (2 Bft) 97,32 %
24.12.2015 10:50 5,2 C 89 % 1028,2 hPa 0,0 l/m 3,5 km/h (1 Bft) S 176 5 min 0,000 mm 0,5 UV-I 246 W/m 3,5 C 5,2 C 6,4 km/h (2 Bft) 99,15 %
24.12.2015 10:55 5,3 C 90 % 1028,1 hPa 0,0 l/m 2,3 km/h (1 Bft) S 180 5 min 0,000 mm 0,5 UV-I 250 W/m 3,8 C 5,3 C 6,4 km/h (2 Bft) 96,67 %
24.12.2015 11:00 5,4 C 89 % 1027,9 hPa 0,0 l/m 2,4 km/h (1 Bft) S-SO 162 5 min 0,101 mm 0,6 UV-I 255 W/m 3,7 C 5,4 C 8,0 km/h (2 Bft) 97,52 %
24.12.2015 11:05 5,8 C 87 % 1027,8 hPa 0,0 l/m 4,2 km/h (1 Bft) S 182 5 min 0,000 mm 0,6 UV-I 261 W/m 3,8 C 5,8 C 11,3 km/h (2 Bft) 98,31 %
24.12.2015 11:10 6,0 C 85 % 1027,7 hPa 0,0 l/m 3,9 km/h (1 Bft) S-SO 159 5 min 0,000 mm 0,6 UV-I 266 W/m 3,7 C 6,0 C 8,0 km/h (2 Bft) 97,44 %
24.12.2015 11:15 6,1 C 86 % 1027,7 hPa 0,0 l/m 5,2 km/h (1 Bft) S-SO 158 5 min 0,000 mm 0,6 UV-I 270 W/m 3,9 C 6,1 C 12,9 km/h (3 Bft) 95,41 %
24.12.2015 11:20 6,3 C 85 % 1027,7 hPa 0,0 l/m 2,7 km/h (1 Bft) S-SO 160 5 min 0,000 mm 0,6 UV-I 274 W/m 4,0 C 6,3 C 8,0 km/h (2 Bft) 99,17 %
24.12.2015 11:25 6,4 C 84 % 1027,7 hPa 0,0 l/m 2,5 km/h (1 Bft) S 182 5 min 0,000 mm 0,6 UV-I 277 W/m 3,9 C 6,4 C 6,4 km/h (2 Bft) 98,35 %
24.12.2015 11:30 6,7 C 84 % 1027,6 hPa 0,0 l/m 2,6 km/h (1 Bft) W-SW 246 5 min 0,000 mm 0,7 UV-I 278 W/m 4,2 C 6,7 C 6,4 km/h (2 Bft) 99,08 %
24.12.2015 11:35 6,6 C 86 % 1027,5 hPa 0,0 l/m 3,7 km/h (1 Bft) SW 227 5 min 0,000 mm 0,7 UV-I 280 W/m 4,4 C 6,6 C 6,4 km/h (2 Bft) 99,19 %
24.12.2015 11:40 6,3 C 85 % 1027,5 hPa 0,0 l/m 3,5 km/h (1 Bft) S 187 5 min 0,000 mm 0,7 UV-I 282 W/m 4,0 C 6,3 C 8,0 km/h (2 Bft) 99,08 %
24.12.2015 11:45 6,7 C 86 % 1027,4 hPa 0,0 l/m 2,6 km/h (1 Bft) S-SW 210 5 min 0,000 mm 0,7 UV-I 285 W/m 4,5 C 6,7 C 4,8 km/h (1 Bft) 99,18 %
24.12.2015 11:50 7,2 C 84 % 1027,4 hPa 0,0 l/m 1,0 km/h (0 Bft) S-SW 211 5 min 0,000 mm 0,7 UV-I 287 W/m 4,7 C 7,2 C 3,2 km/h (1 Bft) 99,17 %
24.12.2015 11:55 7,2 C 83 % 1027,4 hPa 0,0 l/m 0,2 km/h (0 Bft) S-SW 211 5 min 0,000 mm 0,7 UV-I 287 W/m 4,5 C 7,2 C 1,6 km/h (1 Bft) 100,00 %
24.12.2015 12:00 7,3 C 81 % 1027,2 hPa 0,0 l/m 0,3 km/h (0 Bft) S-SW 211 5 min 0,127 mm 0,7 UV-I 288 W/m 4,3 C 7,3 C 3,2 km/h (1 Bft) 99,15 %
24.12.2015 12:05 7,4 C 81 % 1027,1 hPa 0,0 l/m 0,8 km/h (0 Bft) S 180 5 min 0,000 mm 0,7 UV-I 290 W/m 4,4 C 7,4 C 3,2 km/h (1 Bft) 97,94 %
24.12.2015 12:20 8,0 C 78 % 1027,0 hPa 0,0 l/m 4,7 km/h (1 Bft) O-NO 69 15 min 0,000 mm 0,7 UV-I 290 W/m 4,4 C 8,0 C 8,0 km/h (2 Bft) 98,95 %
24.12.2015 12:25 8,1 C 77 % 1026,9 hPa 0,0 l/m 3,5 km/h (1 Bft) O-NO 74 5 min 0,000 mm 0,7 UV-I 288 W/m 4,3 C 8,1 C 6,4 km/h (2 Bft) 97,25 %
24.12.2015 12:30 8,2 C 78 % 1026,8 hPa 0,0 l/m 4,1 km/h (1 Bft) O-NO 61 5 min 0,000 mm 0,7 UV-I 288 W/m 4,6 C 8,2 C 6,4 km/h (2 Bft) 97,00 %
24.12.2015 12:35 8,3 C 78 % 1026,8 hPa 0,0 l/m 5,1 km/h (1 Bft) NO 50 5 min 0,000 mm 0,7 UV-I 286 W/m 4,7 C 8,3 C 8,0 km/h (2 Bft) 96,97 %
24.12.2015 12:40 8,2 C 79 % 1026,8 hPa 0,0 l/m 3,8 km/h (1 Bft) NO 50 5 min 0,000 mm 0,7 UV-I 284 W/m 4,8 C 8,2 C 4,8 km/h (1 Bft) 96,61 %
24.12.2015 12:45 8,3 C 78 % 1026,6 hPa 0,0 l/m 3,9 km/h (1 Bft) NO 54 5 min 0,000 mm 0,7 UV-I 281 W/m 4,7 C 8,3 C 6,4 km/h (2 Bft) 99,19 %
24.12.2015 12:50 8,4 C 78 % 1026,5 hPa 0,0 l/m 7,1 km/h (2 Bft) NO 49 5 min 0,000 mm 0,6 UV-I 278 W/m 4,8 C 7,9 C 14,5 km/h (3 Bft) 100,00 %
24.12.2015 12:55 8,6 C 78 % 1026,4 hPa 0,0 l/m 7,7 km/h (2 Bft) O-NO 69 5 min 0,000 mm 0,6 UV-I 276 W/m 5,0 C 7,6 C 12,9 km/h (3 Bft) 98,97 %
24.12.2015 13:00 8,6 C 78 % 1026,5 hPa 0,0 l/m 9,4 km/h (2 Bft) O 80 5 min 0,127 mm 0,6 UV-I 272 W/m 5,0 C 6,4 C 16,1 km/h (3 Bft) 99,26 %
24.12.2015 13:05 8,6 C 79 % 1026,5 hPa 0,0 l/m 5,9 km/h (2 Bft) O-NO 59 5 min 0,000 mm 0,6 UV-I 266 W/m 5,2 C 8,6 C 12,9 km/h (3 Bft) 97,32 %
24.12.2015 13:10 8,7 C 78 % 1026,5 hPa 0,0 l/m 7,0 km/h (2 Bft) O 90 5 min 0,000 mm 0,6 UV-I 262 W/m 5,1 C 8,2 C 12,9 km/h (3 Bft) 98,37 %
24.12.2015 13:15 8,6 C 79 % 1026,5 hPa 0,0 l/m 4,7 km/h (1 Bft) O 101 5 min 0,000 mm 0,6 UV-I 257 W/m 5,2 C 8,6 C 11,3 km/h (2 Bft) 100,00 %
24.12.2015 13:20 8,7 C 79 % 1026,4 hPa 0,0 l/m 4,3 km/h (1 Bft) O-NO 60 5 min 0,000 mm 0,5 UV-I 251 W/m 5,3 C 8,7 C 8,0 km/h (2 Bft) 99,13 %
24.12.2015 13:25 8,7 C 79 % 1026,4 hPa 0,0 l/m 4,2 km/h (1 Bft) NO 54 5 min 0,000 mm 0,5 UV-I 246 W/m 5,3 C 8,7 C 6,4 km/h (2 Bft) 100,00 %
24.12.2015 13:30 8,7 C 79 % 1026,5 hPa 0,0 l/m 3,7 km/h (1 Bft) O-NO 59 5 min 0,000 mm 0,5 UV-I 239 W/m 5,3 C 8,7 C 6,4 km/h (2 Bft) 99,19 %
24.12.2015 13:35 8,7 C 78 % 1026,5 hPa 0,0 l/m 2,0 km/h (1 Bft) O-NO 61 5 min 0,000 mm 0,5 UV-I 233 W/m 5,1 C 8,7 C 4,8 km/h (1 Bft) 100,00 %
24.12.2015 13:40 8,8 C 80 % 1026,4 hPa 0,0 l/m 2,6 km/h (1 Bft) NO 49 5 min 0,000 mm 0,5 UV-I 227 W/m 5,5 C 8,8 C 4,8 km/h (1 Bft) 99,11 %
24.12.2015 13:45 8,8 C 79 % 1026,4 hPa 0,0 l/m 2,4 km/h (1 Bft) NO 48 5 min 0,000 mm 0,3 UV-I 220 W/m 5,4 C 8,8 C 4,8 km/h (1 Bft) 95,65 %
24.12.2015 13:50 8,8 C 80 % 1026,3 hPa 0,0 l/m 0,8 km/h (0 Bft) NO 48 5 min 0,000 mm 0,0 UV-I 212 W/m 5,5 C 8,8 C 3,2 km/h (1 Bft) 96,12 %
24.12.2015 13:55 8,8 C 79 % 1026,3 hPa 0,0 l/m 0,9 km/h (0 Bft) NO 48 5 min 0,000 mm 0,0 UV-I 206 W/m 5,4 C 8,8 C 3,2 km/h (1 Bft) 96,61 %
24.12.2015 14:00 8,7 C 79 % 1026,3 hPa 0,0 l/m 1,0 km/h (0 Bft) NO 48 5 min 0,102 mm 0,0 UV-I 199 W/m 5,3 C 8,7 C 3,2 km/h (1 Bft) 97,44 %
24.12.2015 14:05 8,8 C 80 % 1026,2 hPa 0,0 l/m 2,5 km/h (1 Bft) O 94 5 min 0,000 mm 0,0 UV-I 192 W/m 5,5 C 8,8 C 6,4 km/h (2 Bft) 97,32 %
24.12.2015 14:10 8,9 C 81 % 1026,1 hPa 0,0 l/m 4,9 km/h (1 Bft) O-SO 123 5 min 0,000 mm 0,0 UV-I 184 W/m 5,8 C 8,9 C 9,7 km/h (2 Bft) 98,35 %
24.12.2015 14:15 9,1 C 79 % 1026,1 hPa 0,0 l/m 2,5 km/h (1 Bft) S-SO 154 5 min 0,000 mm 0,0 UV-I 175 W/m 5,7 C 9,1 C 4,8 km/h (1 Bft) 97,37 %
24.12.2015 14:20 9,1 C 79 % 1026,2 hPa 0,0 l/m 1,5 km/h (1 Bft) S-SO 155 5 min 0,000 mm 0,0 UV-I 165 W/m 5,7 C 9,1 C 4,8 km/h (1 Bft) 98,35 %
24.12.2015 14:25 9,2 C 78 % 1026,1 hPa 0,0 l/m 2,1 km/h (1 Bft) S 178 5 min 0,000 mm 0,0 UV-I 157 W/m 5,6 C 9,2 C 8,0 km/h (2 Bft) 99,08 %
24.12.2015 14:30 9,1 C 77 % 1026,1 hPa 0,0 l/m 3,7 km/h (1 Bft) S-SW 193 5 min 0,000 mm 0,0 UV-I 148 W/m 5,3 C 9,1 C 8,0 km/h (2 Bft) 100,00 %
24.12.2015 14:35 8,9 C 77 % 1026,1 hPa 0,0 l/m 4,0 km/h (1 Bft) S-SW 205 5 min 0,000 mm 0,0 UV-I 138 W/m 5,1 C 8,9 C 6,4 km/h (2 Bft) 100,00 %
24.12.2015 14:40 8,9 C 77 % 1026,2 hPa 0,0 l/m 5,9 km/h (2 Bft) S 187 5 min 0,000 mm 0,0 UV-I 128 W/m 5,1 C 8,9 C 11,3 km/h (2 Bft) 100,00 %
24.12.2015 14:45 8,8 C 76 % 1026,2 hPa 0,0 l/m 4,4 km/h (1 Bft) S 182 5 min 0,000 mm 0,0 UV-I 119 W/m 4,8 C 8,8 C 9,7 km/h (2 Bft) 97,30 %
24.12.2015 14:50 8,7 C 77 % 1026,2 hPa 0,0 l/m 5,1 km/h (1 Bft) SW 228 5 min 0,000 mm 0,0 UV-I 109 W/m 4,9 C 8,7 C 8,0 km/h (2 Bft) 99,19 %
24.12.2015 14:55 8,6 C 77 % 1026,1 hPa 0,0 l/m 4,7 km/h (1 Bft) S 186 5 min 0,000 mm 0,0 UV-I 100 W/m 4,8 C 8,6 C 8,0 km/h (2 Bft) 99,12 %
24.12.2015 15:00 8,6 C 77 % 1026,2 hPa 0,0 l/m 4,2 km/h (1 Bft) W-SW 237 5 min 0,076 mm 0,0 UV-I 91 W/m 4,8 C 8,6 C 8,0 km/h (2 Bft) 99,17 %
24.12.2015 15:05 8,5 C 77 % 1026,2 hPa 0,0 l/m 4,7 km/h (1 Bft) S 186 5 min 0,000 mm 0,0 UV-I 82 W/m 4,7 C 8,5 C 9,7 km/h (2 Bft) 98,17 %
24.12.2015 15:10 8,5 C 75 % 1026,2 hPa 0,0 l/m 4,4 km/h (1 Bft) S 190 5 min 0,000 mm 0,0 UV-I 74 W/m 4,3 C 8,5 C 8,0 km/h (2 Bft) 100,00 %
24.12.2015 15:25 8,3 C 76 % 1026,3 hPa 0,0 l/m 2,9 km/h (1 Bft) S-SW 211 0 min 0,000 mm 0,0 UV-I 46 W/m 4,3 C 8,3 C 4,8 km/h (1 Bft) 98,11 %
24.12.2015 15:30 8,2 C 76 % 1026,3 hPa 0,0 l/m 3,7 km/h (1 Bft) SW 235 0 min 0,000 mm 0,0 UV-I 38 W/m 4,2 C 8,2 C 6,4 km/h (2 Bft) 97,09 %
24.12.2015 15:35 8,0 C 77 % 1026,3 hPa 0,0 l/m 3,2 km/h (1 Bft) S-SW 206 0 min 0,000 mm 0,0 UV-I 31 W/m 4,2 C 8,0 C 6,4 km/h (2 Bft) 97,67 %
24.12.2015 15:40 7,9 C 78 % 1026,2 hPa 0,0 l/m 3,2 km/h (1 Bft) S-SW 200 0 min 0,000 mm 0,0 UV-I 24 W/m 4,3 C 7,9 C 6,4 km/h (2 Bft) 97,32 %
24.12.2015 15:45 7,6 C 79 % 1026,2 hPa 0,0 l/m 2,1 km/h (1 Bft) S-SW 200 0 min 0,000 mm 0,0 UV-I 19 W/m 4,2 C 7,6 C 4,8 km/h (1 Bft) 96,69 %
24.12.2015 15:50 7,4 C 80 % 1026,2 hPa 0,0 l/m 0,9 km/h (0 Bft) S-SW 200 0 min 0,000 mm 0,0 UV-I 16 W/m 4,2 C 7,4 C 3,2 km/h (1 Bft) 100,00 %
24.12.2015 15:55 7,2 C 81 % 1026,3 hPa 0,0 l/m 0,3 km/h (0 Bft) S-SW 200 0 min 0,000 mm 0,0 UV-I 13 W/m 4,2 C 7,2 C 3,2 km/h (1 Bft) 98,28 %
24.12.2015 16:00 6,8 C 83 % 1026,2 hPa 0,0 l/m 0,1 km/h (0 Bft) S-SW 200 5 min 0,026 mm 0,0 UV-I 12 W/m 4,1 C 6,8 C 1,6 km/h (1 Bft) 100,00 %
24.12.2015 16:05 6,3 C 85 % 1026,3 hPa 0,0 l/m 0,2 km/h (0 Bft) S-SW 200 0 min 0,000 mm 0,0 UV-I 10 W/m 4,0 C 6,3 C 1,6 km/h (1 Bft) 98,15 %
24.12.2015 16:10 6,4 C 84 % 1026,3 hPa 0,0 l/m 0,0 km/h (0 Bft) S-SW 200 0 min 0,000 mm 0,0 UV-I 8 W/m 3,9 C 6,4 C 0,0 km/h (0 Bft) 97,52 %
24.12.2015 16:15 5,9 C 86 % 1026,4 hPa 0,0 l/m 0,0 km/h (0 Bft) S-SW 200 0 min 0,000 mm 0,0 UV-I 6 W/m 3,7 C 5,9 C 0,0 km/h (0 Bft) 99,13 %
24.12.2015 16:20 5,4 C 87 % 1026,3 hPa 0,0 l/m 1,1 km/h (1 Bft) S-SW 200 0 min 0,000 mm 0,0 UV-I 3 W/m 3,4 C 5,4 C 3,2 km/h (1 Bft) 100,00 %
24.12.2015 16:25 5,1 C 90 % 1026,3 hPa 0,0 l/m 1,6 km/h (1 Bft) S-SW 200 0 min 0,000 mm 0,0 UV-I 0 W/m 3,6 C 5,1 C 3,2 km/h (1 Bft) 98,21 %
24.12.2015 16:30 5,3 C 88 % 1026,3 hPa 0,0 l/m 1,5 km/h (1 Bft) S-SW 200 0 min 0,000 mm 0,0 UV-I 0 W/m 3,5 C 5,3 C 4,8 km/h (1 Bft) 100,00 %
24.12.2015 16:35 4,9 C 88 % 1026,4 hPa 0,0 l/m 3,3 km/h (1 Bft) S-SW 200 0 min 0,000 mm 0,0 UV-I 0 W/m 3,1 C 4,9 C 4,8 km/h (1 Bft) 99,11 %
24.12.2015 16:40 4,7 C 90 % 1026,3 hPa 0,0 l/m 2,8 km/h (1 Bft) S-SW 200 0 min 0,000 mm 0,0 UV-I 0 W/m 3,2 C 4,7 C 4,8 km/h (1 Bft) 100,00 %
24.12.2015 16:45 4,6 C 90 % 1026,3 hPa 0,0 l/m 3,1 km/h (1 Bft) S-SW 200 0 min 0,000 mm 0,0 UV-I 0 W/m 3,1 C 4,6 C 4,8 km/h (1 Bft) 99,12 %
24.12.2015 16:50 4,7 C 90 % 1026,3 hPa 0,0 l/m 5,3 km/h (1 Bft) SO 138 0 min 0,000 mm 0,0 UV-I 0 W/m 3,2 C 4,7 C 8,0 km/h (2 Bft) 100,00 %
24.12.2015 16:55 4,8 C 90 % 1026,4 hPa 0,0 l/m 2,6 km/h (1 Bft) SO 138 0 min 0,000 mm 0,0 UV-I 0 W/m 3,3 C 4,8 C 4,8 km/h (1 Bft) 99,11 %
24.12.2015 17:00 4,8 C 89 % 1026,4 hPa 0,0 l/m 0,0 km/h (0 Bft) SO 138 0 min 0,000 mm 0,0 UV-I 0 W/m 3,1 C 4,8 C 1,6 km/h (1 Bft) 99,21 %
24.12.2015 17:05 4,8 C 89 % 1026,4 hPa 0,0 l/m 2,1 km/h (1 Bft) SO 138 0 min 0,000 mm 0,0 UV-I 0 W/m 3,1 C 4,8 C 4,8 km/h (1 Bft) 100,00 %
24.12.2015 17:10 4,3 C 90 % 1026,4 hPa 0,0 l/m 3,0 km/h (1 Bft) O-SO 118 0 min 0,000 mm 0,0 UV-I 0 W/m 2,8 C 4,3 C 4,8 km/h (1 Bft) 98,17 %
24.12.2015 17:15 4,6 C 90 % 1026,5 hPa 0,0 l/m 1,0 km/h (0 Bft) N-NO 23 0 min 0,000 mm 0,0 UV-I 0 W/m 3,1 C 4,6 C 3,2 km/h (1 Bft) 100,00 %
24.12.2015 17:20 4,3 C 90 % 1026,5 hPa 0,0 l/m 0,4 km/h (0 Bft) N-NO 23 0 min 0,000 mm 0,0 UV-I 0 W/m 2,8 C 4,3 C 1,6 km/h (1 Bft) 95,76 %
24.12.2015 17:25 4,1 C 90 % 1026,6 hPa 0,0 l/m 0,2 km/h (0 Bft) N-NO 23 0 min 0,000 mm 0,0 UV-I 0 W/m 2,6 C 4,1 C 1,6 km/h (1 Bft) 97,50 %
24.12.2015 17:30 4,1 C 91 % 1026,7 hPa 0,0 l/m 0,0 km/h (0 Bft) N-NO 23 0 min 0,000 mm 0,0 UV-I 0 W/m 2,8 C 4,1 C 1,6 km/h (1 Bft) 94,07 %
24.12.2015 17:35 3,8 C 91 % 1026,8 hPa 0,0 l/m 0,0 km/h (0 Bft) N-NO 23 0 min 0,000 mm 0,0 UV-I 0 W/m 2,5 C 3,8 C 1,6 km/h (1 Bft) 96,67 %
24.12.2015 17:40 3,7 C 92 % 1026,9 hPa 0,0 l/m 0,6 km/h (0 Bft) N-NO 23 0 min 0,000 mm 0,0 UV-I 0 W/m 2,5 C 3,7 C 1,6 km/h (1 Bft) 96,61 %
24.12.2015 17:45 3,6 C 92 % 1027,0 hPa 0,0 l/m 0,6 km/h (0 Bft) N-NO 23 0 min 0,000 mm 0,0 UV-I 0 W/m 2,4 C 3,6 C 3,2 km/h (1 Bft) 97,25 %
24.12.2015 17:50 3,3 C 93 % 1026,9 hPa 0,0 l/m 0,4 km/h (0 Bft) O-NO 69 0 min 0,000 mm 0,0 UV-I 0 W/m 2,3 C 3,3 C 3,2 km/h (1 Bft) 95,76 %
24.12.2015 17:55 3,1 C 93 % 1027,0 hPa 0,0 l/m 1,2 km/h (1 Bft) O-NO 69 0 min 0,000 mm 0,0 UV-I 0 W/m 2,1 C 3,1 C 3,2 km/h (1 Bft) 96,58 %
24.12.2015 18:00 3,2 C 94 % 1027,0 hPa 0,0 l/m 0,3 km/h (0 Bft) O-NO 69 0 min 0,000 mm 0,0 UV-I 0 W/m 2,3 C 3,2 C 1,6 km/h (1 Bft) 98,39 %
24.12.2015 18:05 3,6 C 95 % 1027,1 hPa 0,0 l/m 0,0 km/h (0 Bft) O-NO 69 0 min 0,000 mm 0,0 UV-I 0 W/m 2,9 C 3,6 C 0,0 km/h (0 Bft) 98,29 %
24.12.2015 18:10 3,7 C 93 % 1027,0 hPa 0,0 l/m 0,0 km/h (0 Bft) O-NO 69 0 min 0,000 mm 0,0 UV-I 0 W/m 2,7 C 3,7 C 0,0 km/h (0 Bft) 95,76 %
24.12.2015 18:15 3,5 C 93 % 1027,1 hPa 0,0 l/m 0,0 km/h (0 Bft) O-NO 69 0 min 0,000 mm 0,0 UV-I 0 W/m 2,5 C 3,5 C 0,0 km/h (0 Bft) 99,15 %
24.12.2015 18:20 3,3 C 93 % 1027,0 hPa 0,0 l/m 0,0 km/h (0 Bft) O-NO 69 0 min 0,000 mm 0,0 UV-I 0 W/m 2,3 C 3,3 C 0,0 km/h (0 Bft) 100,00 %
24.12.2015 18:25 2,8 C 93 % 1027,0 hPa 0,0 l/m 2,5 km/h (1 Bft) O-NO 69 0 min 0,000 mm 0,0 UV-I 0 W/m 1,8 C 2,8 C 3,2 km/h (1 Bft) 98,11 %
24.12.2015 18:30 3,2 C 95 % 1027,1 hPa 0,0 l/m 1,8 km/h (1 Bft) SO 142 0 min 0,000 mm 0,0 UV-I 0 W/m 2,5 C 3,2 C 4,8 km/h (1 Bft) 100,00 %
24.12.2015 18:35 3,4 C 95 % 1027,2 hPa 0,0 l/m 2,0 km/h (1 Bft) SO 144 0 min 0,000 mm 0,0 UV-I 0 W/m 2,7 C 3,4 C 3,2 km/h (1 Bft) 99,17 %
24.12.2015 18:40 3,2 C 93 % 1027,1 hPa 0,0 l/m 3,0 km/h (1 Bft) SW 218 0 min 0,000 mm 0,0 UV-I 0 W/m 2,2 C 3,2 C 4,8 km/h (1 Bft) 100,00 %
24.12.2015 18:45 2,4 C 93 % 1027,2 hPa 0,0 l/m 2,7 km/h (1 Bft) SW 218 0 min 0,000 mm 0,0 UV-I 0 W/m 1,4 C 2,4 C 4,8 km/h (1 Bft) 100,00 %
24.12.2015 18:50 2,3 C 95 % 1027,4 hPa 0,0 l/m 3,6 km/h (1 Bft) SW 218 0 min 0,000 mm 0,0 UV-I 0 W/m 1,6 C 2,3 C 4,8 km/h (1 Bft) 99,15 %
24.12.2015 18:55 2,4 C 95 % 1027,4 hPa 0,0 l/m 3,7 km/h (1 Bft) SW 218 0 min 0,000 mm 0,0 UV-I 0 W/m 1,7 C 2,4 C 4,8 km/h (1 Bft) 98,31 %
24.12.2015 19:00 2,4 C 95 % 1027,4 hPa 0,0 l/m 3,0 km/h (1 Bft) SW 218 0 min 0,000 mm 0,0 UV-I 0 W/m 1,7 C 2,4 C 4,8 km/h (1 Bft) 100,00 %
24.12.2015 19:05 2,6 C 96 % 1027,5 hPa 0,0 l/m 2,3 km/h (1 Bft) SW 218 0 min 0,000 mm 0,0 UV-I 0 W/m 2,0 C 2,6 C 3,2 km/h (1 Bft) 99,06 %
24.12.2015 19:10 2,8 C 96 % 1027,6 hPa 0,0 l/m 1,9 km/h (1 Bft) SW 218 0 min 0,000 mm 0,0 UV-I 0 W/m 2,2 C 2,8 C 4,8 km/h (1 Bft) 100,00 %
24.12.2015 19:15 2,7 C 95 % 1027,7 hPa 0,0 l/m 4,7 km/h (1 Bft) S-SW 205 0 min 0,000 mm 0,0 UV-I 0 W/m 2,0 C 2,7 C 6,4 km/h (2 Bft) 100,00 %
24.12.2015 19:20 2,4 C 94 % 1027,8 hPa 0,0 l/m 4,5 km/h (1 Bft) S-SW 205 0 min 0,000 mm 0,0 UV-I 0 W/m 1,5 C 2,4 C 6,4 km/h (2 Bft) 99,15 %
24.12.2015 19:25 2,5 C 96 % 1027,8 hPa 0,0 l/m 5,5 km/h (1 Bft) S 178 0 min 0,000 mm 0,0 UV-I 0 W/m 1,9 C 2,5 C 6,4 km/h (2 Bft) 99,15 %
24.12.2015 19:30 2,6 C 95 % 1027,8 hPa 0,0 l/m 4,6 km/h (1 Bft) S 180 0 min 0,000 mm 0,0 UV-I 0 W/m 1,9 C 2,6 C 6,4 km/h (2 Bft) 99,17 %
24.12.2015 19:35 2,8 C 95 % 1027,8 hPa 0,0 l/m 3,1 km/h (1 Bft) S 178 0 min 0,000 mm 0,0 UV-I 0 W/m 2,1 C 2,8 C 4,8 km/h (1 Bft) 97,50 %
24.12.2015 19:40 2,7 C 94 % 1028,1 hPa 0,0 l/m 4,1 km/h (1 Bft) S-SW 197 0 min 0,000 mm 0,0 UV-I 0 W/m 1,8 C 2,7 C 4,8 km/h (1 Bft) 97,46 %
24.12.2015 19:45 2,6 C 95 % 1028,1 hPa 0,0 l/m 3,5 km/h (1 Bft) S 170 0 min 0,000 mm 0,0 UV-I 0 W/m 1,9 C 2,6 C 6,4 km/h (2 Bft) 96,52 %
24.12.2015 19:50 2,7 C 95 % 1028,1 hPa 0,0 l/m 3,0 km/h (1 Bft) S 173 0 min 0,000 mm 0,0 UV-I 0 W/m 2,0 C 2,7 C 6,4 km/h (2 Bft) 97,44 %
24.12.2015 19:55 2,8 C 94 % 1028,3 hPa 0,0 l/m 2,7 km/h (1 Bft) S 171 0 min 0,000 mm 0,0 UV-I 0 W/m 1,9 C 2,8 C 6,4 km/h (2 Bft) 96,33 %
24.12.2015 20:00 2,9 C 93 % 1028,3 hPa 0,0 l/m 3,1 km/h (1 Bft) S 176 0 min 0,000 mm 0,0 UV-I 0 W/m 1,9 C 2,9 C 6,4 km/h (2 Bft) 95,87 %
24.12.2015 20:05 3,0 C 93 % 1028,3 hPa 0,0 l/m 1,6 km/h (1 Bft) S 175 0 min 0,000 mm 0,0 UV-I 0 W/m 2,0 C 3,0 C 4,8 km/h (1 Bft) 97,44 %
24.12.2015 20:10 2,9 C 92 % 1028,3 hPa 0,0 l/m 1,9 km/h (1 Bft) S 175 0 min 0,000 mm 0,0 UV-I 0 W/m 1,7 C 2,9 C 4,8 km/h (1 Bft) 97,46 %
24.12.2015 20:15 3,0 C 92 % 1028,4 hPa 0,0 l/m 0,7 km/h (0 Bft) S 175 0 min 0,000 mm 0,0 UV-I 0 W/m 1,8 C 3,0 C 3,2 km/h (1 Bft) 99,17 %
24.12.2015 20:20 2,8 C 92 % 1028,4 hPa 0,0 l/m 1,5 km/h (1 Bft) S 175 0 min 0,000 mm 0,0 UV-I 0 W/m 1,6 C 2,8 C 3,2 km/h (1 Bft) 99,15 %
24.12.2015 20:25 2,6 C 92 % 1028,6 hPa 0,0 l/m 3,9 km/h (1 Bft) S 176 0 min 0,000 mm 0,0 UV-I 0 W/m 1,4 C 2,6 C 4,8 km/h (1 Bft) 99,15 %
24.12.2015 20:30 2,3 C 94 % 1028,6 hPa 0,0 l/m 5,0 km/h (1 Bft) S 175 0 min 0,000 mm 0,0 UV-I 0 W/m 1,4 C 2,3 C 9,7 km/h (2 Bft) 100,00 %
24.12.2015 20:35 2,3 C 93 % 1028,7 hPa 0,0 l/m 5,2 km/h (1 Bft) S 178 0 min 0,000 mm 0,0 UV-I 0 W/m 1,3 C 2,3 C 8,0 km/h (2 Bft) 100,00 %
24.12.2015 20:40 2,4 C 93 % 1028,7 hPa 0,0 l/m 3,1 km/h (1 Bft) S 176 0 min 0,000 mm 0,0 UV-I 0 W/m 1,4 C 2,4 C 4,8 km/h (1 Bft) 99,17 %
24.12.2015 20:45 2,4 C 93 % 1028,8 hPa 0,0 l/m 5,0 km/h (1 Bft) S 182 0 min 0,000 mm 0,0 UV-I 0 W/m 1,4 C 2,4 C 8,0 km/h (2 Bft) 99,17 %
24.12.2015 20:50 2,3 C 92 % 1028,8 hPa 0,0 l/m 5,8 km/h (2 Bft) S 170 0 min 0,000 mm 0,0 UV-I 0 W/m 1,1 C 2,3 C 8,0 km/h (2 Bft) 98,31 %
24.12.2015 20:55 2,1 C 93 % 1028,9 hPa 0,0 l/m 4,9 km/h (1 Bft) S 180 0 min 0,000 mm 0,0 UV-I 0 W/m 1,1 C 2,1 C 8,0 km/h (2 Bft) 96,58 %
24.12.2015 21:00 2,1 C 93 % 1028,9 hPa 0,0 l/m 4,6 km/h (1 Bft) S 182 0 min 0,000 mm 0,0 UV-I 0 W/m 1,1 C 2,1 C 6,4 km/h (2 Bft) 99,06 %
24.12.2015 21:05 1,8 C 93 % 1029,1 hPa 0,0 l/m 5,7 km/h (1 Bft) S-SW 205 0 min 0,000 mm 0,0 UV-I 0 W/m 0,8 C 1,8 C 8,0 km/h (2 Bft) 100,00 %
24.12.2015 21:10 1,6 C 94 % 1029,1 hPa 0,0 l/m 5,8 km/h (2 Bft) S 169 0 min 0,000 mm 0,0 UV-I 0 W/m 0,7 C 1,6 C 8,0 km/h (2 Bft) 99,15 %
24.12.2015 21:15 1,8 C 94 % 1029,2 hPa 0,0 l/m 5,4 km/h (1 Bft) S 186 0 min 0,000 mm 0,0 UV-I 0 W/m 0,9 C 1,8 C 8,0 km/h (2 Bft) 99,06 %
24.12.2015 21:20 2,1 C 94 % 1029,2 hPa 0,0 l/m 6,5 km/h (2 Bft) S 184 0 min 0,000 mm 0,0 UV-I 0 W/m 1,2 C 2,0 C 12,9 km/h (3 Bft) 100,00 %
24.12.2015 21:25 2,3 C 93 % 1029,1 hPa 0,0 l/m 6,6 km/h (2 Bft) S 182 0 min 0,000 mm 0,0 UV-I 0 W/m 1,3 C 2,1 C 9,7 km/h (2 Bft) 100,00 %
24.12.2015 21:30 2,5 C 92 % 1029,2 hPa 0,0 l/m 6,0 km/h (2 Bft) S 176 0 min 0,000 mm 0,0 UV-I 0 W/m 1,3 C 2,5 C 8,0 km/h (2 Bft) 99,15 %
24.12.2015 21:35 2,6 C 92 % 1029,2 hPa 0,0 l/m 4,9 km/h (1 Bft) S-SO 165 0 min 0,000 mm 0,0 UV-I 0 W/m 1,4 C 2,6 C 8,0 km/h (2 Bft) 100,00 %
24.12.2015 21:40 2,4 C 92 % 1029,1 hPa 0,0 l/m 5,0 km/h (1 Bft) S-SO 167 0 min 0,000 mm 0,0 UV-I 0 W/m 1,2 C 2,4 C 9,7 km/h (2 Bft) 99,17 %
24.12.2015 21:45 2,6 C 91 % 1029,0 hPa 0,0 l/m 3,9 km/h (1 Bft) S 169 0 min 0,000 mm 0,0 UV-I 0 W/m 1,3 C 2,6 C 8,0 km/h (2 Bft) 95,87 %
24.12.2015 21:50 2,7 C 91 % 1029,2 hPa 0,0 l/m 5,5 km/h (1 Bft) S-SO 165 0 min 0,000 mm 0,0 UV-I 0 W/m 1,4 C 2,7 C 9,7 km/h (2 Bft) 97,17 %
24.12.2015 21:55 2,6 C 90 % 1029,3 hPa 0,0 l/m 6,5 km/h (2 Bft) S 187 0 min 0,000 mm 0,0 UV-I 0 W/m 1,1 C 2,5 C 9,7 km/h (2 Bft) 97,44 %
24.12.2015 22:00 2,5 C 91 % 1029,3 hPa 0,0 l/m 6,6 km/h (2 Bft) S 176 0 min 0,000 mm 0,0 UV-I 0 W/m 1,2 C 2,3 C 11,3 km/h (2 Bft) 96,61 %
24.12.2015 22:05 2,5 C 90 % 1029,3 hPa 0,0 l/m 7,0 km/h (2 Bft) S-SW 193 0 min 0,000 mm 0,0 UV-I 0 W/m 1,0 C 1,9 C 11,3 km/h (2 Bft) 95,83 %
24.12.2015 22:10 2,5 C 90 % 1029,3 hPa 0,0 l/m 5,5 km/h (1 Bft) S-SW 192 0 min 0,000 mm 0,0 UV-I 0 W/m 1,0 C 2,5 C 8,0 km/h (2 Bft) 96,61 %
24.12.2015 22:15 2,4 C 90 % 1029,3 hPa 0,0 l/m 5,0 km/h (1 Bft) S 178 0 min 0,000 mm 0,0 UV-I 0 W/m 0,9 C 2,4 C 6,4 km/h (2 Bft) 94,64 %
24.12.2015 22:20 2,5 C 91 % 1029,2 hPa 0,0 l/m 6,0 km/h (2 Bft) S 184 0 min 0,000 mm 0,0 UV-I 0 W/m 1,2 C 2,5 C 8,0 km/h (2 Bft) 97,44 %
24.12.2015 22:25 2,8 C 90 % 1029,3 hPa 0,0 l/m 6,0 km/h (2 Bft) S 187 0 min 0,000 mm 0,0 UV-I 0 W/m 1,3 C 2,8 C 9,7 km/h (2 Bft) 98,31 %
24.12.2015 22:30 2,8 C 89 % 1029,3 hPa 0,0 l/m 5,4 km/h (1 Bft) S 188 0 min 0,000 mm 0,0 UV-I 0 W/m 1,2 C 2,8 C 6,4 km/h (2 Bft) 100,00 %
24.12.2015 22:35 2,7 C 89 % 1029,4 hPa 0,0 l/m 5,3 km/h (1 Bft) S 189 0 min 0,000 mm 0,0 UV-I 0 W/m 1,1 C 2,7 C 6,4 km/h (2 Bft) 100,00 %
24.12.2015 22:40 2,6 C 90 % 1029,3 hPa 0,0 l/m 4,1 km/h (1 Bft) S 184 0 min 0,000 mm 0,0 UV-I 0 W/m 1,1 C 2,6 C 6,4 km/h (2 Bft) 96,61 %
24.12.2015 22:45 2,7 C 90 % 1029,3 hPa 0,0 l/m 5,5 km/h (1 Bft) S 174 0 min 0,000 mm 0,0 UV-I 0 W/m 1,2 C 2,7 C 8,0 km/h (2 Bft) 98,33 %
24.12.2015 22:50 2,8 C 89 % 1029,4 hPa 0,0 l/m 4,7 km/h (1 Bft) S-SO 166 0 min 0,000 mm 0,0 UV-I 0 W/m 1,2 C 2,8 C 8,0 km/h (2 Bft) 100,00 %
24.12.2015 22:55 2,9 C 89 % 1029,4 hPa 0,0 l/m 5,4 km/h (1 Bft) S 177 0 min 0,000 mm 0,0 UV-I 0 W/m 1,3 C 2,9 C 8,0 km/h (2 Bft) 99,15 %
24.12.2015 23:00 2,8 C 88 % 1029,4 hPa 0,0 l/m 4,2 km/h (1 Bft) S 169 0 min 0,000 mm 0,0 UV-I 0 W/m 1,0 C 2,8 C 8,0 km/h (2 Bft) 100,00 %
24.12.2015 23:05 2,7 C 89 % 1029,4 hPa 0,0 l/m 2,5 km/h (1 Bft) S 181 0 min 0,000 mm 0,0 UV-I 0 W/m 1,1 C 2,7 C 6,4 km/h (2 Bft) 99,11 %
24.12.2015 23:10 2,7 C 89 % 1029,3 hPa 0,0 l/m 4,1 km/h (1 Bft) S-SO 167 0 min 0,000 mm 0,0 UV-I 0 W/m 1,1 C 2,7 C 8,0 km/h (2 Bft) 98,31 %
24.12.2015 23:15 2,8 C 89 % 1029,4 hPa 0,0 l/m 4,8 km/h (1 Bft) S 169 0 min 0,000 mm 0,0 UV-I 0 W/m 1,2 C 2,8 C 8,0 km/h (2 Bft) 99,15 %
24.12.2015 23:20 2,7 C 88 % 1029,4 hPa 0,0 l/m 2,1 km/h (1 Bft) S 169 0 min 0,000 mm 0,0 UV-I 0 W/m 0,9 C 2,7 C 6,4 km/h (2 Bft) 97,52 %
24.12.2015 23:25 2,6 C 88 % 1029,4 hPa 0,0 l/m 3,2 km/h (1 Bft) S 170 0 min 0,000 mm 0,0 UV-I 0 W/m 0,8 C 2,6 C 6,4 km/h (2 Bft) 100,00 %
24.12.2015 23:30 2,1 C 89 % 1029,4 hPa 0,0 l/m 2,8 km/h (1 Bft) S 169 0 min 0,000 mm 0,0 UV-I 0 W/m 0,5 C 2,1 C 6,4 km/h (2 Bft) 100,00 %
24.12.2015 23:35 2,2 C 90 % 1029,4 hPa 0,0 l/m 3,7 km/h (1 Bft) S 173 0 min 0,000 mm 0,0 UV-I 0 W/m 0,7 C 2,2 C 6,4 km/h (2 Bft) 99,06 %
24.12.2015 23:40 2,7 C 89 % 1029,4 hPa 0,0 l/m 3,1 km/h (1 Bft) S 169 0 min 0,000 mm 0,0 UV-I 0 W/m 1,1 C 2,7 C 6,4 km/h (2 Bft) 98,29 %
24.12.2015 23:45 2,9 C 88 % 1029,4 hPa 0,0 l/m 2,4 km/h (1 Bft) S 169 0 min 0,000 mm 0,0 UV-I 0 W/m 1,1 C 2,9 C 6,4 km/h (2 Bft) 98,31 %
24.12.2015 23:50 2,3 C 88 % 1029,5 hPa 0,0 l/m 1,6 km/h (1 Bft) S 169 0 min 0,000 mm 0,0 UV-I 0 W/m 0,5 C 2,3 C 6,4 km/h (2 Bft) 97,46 %
24.12.2015 23:55 1,7 C 90 % 1029,5 hPa 0,0 l/m 0,9 km/h (0 Bft) S 169 0 min 0,000 mm 0,0 UV-I 0 W/m 0,2 C 1,7 C 3,2 km/h (1 Bft) 95,73 %
_ Min-Zeit 08:25 15:10 14:10 - 01:15 - - - - - - 08:25 08:25 05:30 17:30
Minimum _ -0,1 C 75 % 1026,1 hPa - 0,0 km/h (0 Bft) - - - - - - -0,5 C -0,1 C 0,0 km/h (0 Bft) 94,07 %
_ Max-Zeit 14:25 08:40 00:00 00:00 13:00 - - 12:20 12:00 11:30 12:05 14:10 14:25 13:00 00:55
Maximum _ 9,2 C 98 % 1031,0 hPa 0,0 l/m 9,4 km/h
O (2 Bft)
- - 15 min 0,127 mm 0,7 UV-I 290 W/m 5,8 C 9,2 C 16,1 km/h
O (3 Bft)
100,00 %
Durchschnitt _ 4,2 C 90 % 1028,3 hPa #0,0 l/m 2,7 km/h (1 Bft) S - #6:05 h #0,610 mm 0,6 UV-I 158 W/m 2,7 C 4,2 C 5,3 km/h (1 Bft) 98,44 %